sat.trackr.live / text

‹ back to catalog

STARLINK-31309

NORAD 59164 · 2024-044N

PAYLOAD ACTIVE UNKNOWN

§ Identity

Operator
Country
US
Launch date
2024-03-04
Launch site
AFETR
Launch vehicle
Mass (kg)
RCS (m²)

Purposes: comms

External: N2YO · Heavens-Above · Gunter

§ Orbital elements

Epoch: 2026-05-24T23:18:51.362784Z

Period
94.27 min
Inclination
43.0012°
Eccentricity
0.0001397
Mean motion
15.27583360 rev/d
Perigee alt
482.1 km
Apogee alt
484.0 km
Semi-major
6,861.2 km
B*
3.3785e-4
RAAN
36.0760°
Arg perigee
249.9725°
Mean anomaly
110.0976°
Rev number
12,526

§ Raw data

STARLINK-313091 59164U 24044N   26144.97142781  .00009047  00000+0  33785-3 0  99932 59164  43.0012  36.0760 0001397 249.9725 110.0976 15.27583360125267

JSON: /api/v1/satellites/59164 · /tle

For live sub-satellite position, see the globe view (requires WebGL).

§ Visibility from observer

Set your observer location to see the next 7 days of passes ≥ 10°. The values pass through the URL so the page stays shareable.

No JS? Fill the form by hand. The geolocation button needs JavaScript.